Find Starlink 6118

NORAD ID: 57106 Int'l Des: 2023-090 Owner: SPXS Country: US Constellation: starlink operational
LEOCIRCULAR

リアルタイム位置

3D地球を読み込み中...

Starlink 6118について

説明を読み込み中...

次回通過

Passes for default location (London). Set your location on the main map for personalized predictions.

高度履歴

Loading altitude history...

軌道要素

1 57106U 23090F 26127.79835578 .00000022 00000-0 10498-4 0 9993
2 57106 43.0009 307.6213 0000867 259.3906 100.6848 15.26741855159370
Epoch: May 7, 2026 • Age: 5 hours

現在のステータス

高度 485.2 km
速度 7.62 km/s
衛星直下点 0.49°N, 109.84°W
打ち上げ日 Jun 23, 2023
運用期間 2.8 years
タイプ internet

技術仕様

分類 Payload
質量 305.00 kg
乾燥質量 290.00 kg
総質量 305.00 kg
長さ 0.20 m
直径 2.80 m
スパン 9.00 m
形状 Box + pan
製造者 SPXS
バスタイプ Starlink
フェーズステータス In Orbit
所有者/国 SPXS/US

Most Searched